Regional Weather Roundup
Issued by NWS

Home | Current Version | Previous Version | Text Only | Print | Product List | Glossary On
Versions: 1 2 3 4 5 6 7 8 9 10 11 12 13 14 15 16 17 18 19 20 21 22 23 24 25 26 27 28 29 30 31 32 33 34 35 36 37 38 39 40 41 42 43 44 45 46 47 48 49 50
000
ASUS45 KABQ 220110
RWRNM
NEW MEXICO REGIONAL WEATHER ROUNDUP
NATIONAL WEATHER SERVICE ALBUQUERQUE NM
600 PM MST TUE NOV 21 2017

NOTE: "FAIR" MEANS FEW OR NO CLOUDS BELOW 12,000 FEET AGL WITH NO
       SIGNIFICANT WEATHER OR OBSTRUCTIONS TO VISION.

      THIS PRODUCT IS RELEASED AS TWO VERSIONS.  ONE VERSION NEAR
      THE TOP OF THE HOUR CONTAINING PRELIMINARY DATA FROM ALBUQUERQUE
      AND OTHER STATIONS.  A FINAL VERSION WITH ADDITIONAL DATA IS
      ISSUED ABOUT 10 MINUTES AFTER THE HOUR.

NMZ501-503-504-510>518-220200-
NORTHWEST PLATEAU/NORTHCENTRAL MOUNTAINS

CITY           SKY/WX    TMP DP  RH WIND       PRES   REMARKS
FARMINGTON     FAIR      52  23  32 SW7       30.27R
LOS ALAMOS     FAIR      51  17  26 S8        30.36R
SANTA FE       FAIR      49  20  31 SE9       30.33R
TAOS           FAIR      50  21  32 NE3       30.35R
ANGEL FIRE     FAIR      38  26  62 S10       30.39R WCI  30

$$
NMZ402-403-502-505>509-220200-
WESTCENTRAL MOUNTAINS/SOUTHWEST MOUNTAINS

CITY           SKY/WX    TMP DP  RH WIND       PRES   REMARKS
GALLUP         FAIR      51  26  37 NE3       30.34R
GRANTS         FAIR      47  24  41 NW17      30.36R
SILVER CITY    FAIR      51  14  23 CALM      30.23R

$$
NMZ407-409-411-412-220200-
SOUTHERN DESERTS

CITY           SKY/WX    TMP DP  RH WIND       PRES   REMARKS
DEMING         FAIR      66  22  18 NE12      30.18R
LAS CRUCES     FAIR      63  17  17 S8        30.21R
HOLLOMAN AFB   FAIR      63  22  21 E7        30.19R
ALAMOGORDO     FAIR      63  18  17 E8        30.19R
T OR C         FAIR      65  22  19 NE8       30.21R

$$
NMZ519>523-220200-
CENTRAL VALLEYS/CENTRAL HIGHLANDS

CITY           SKY/WX    TMP DP  RH WIND       PRES   REMARKS
ALBUQUERQUE    MOCLDY    56  19  23 E14       30.28R
DOUBLE EAGLE   CLEAR     54  25  32 VRB3      30.31R
MORIARTY ARPT  FAIR      45  18  33 SE7       30.36R
CLINES CORNERS FAIR      41  20  43 E12       30.38R
BELEN          FAIR      57  19  23 E6        30.28R
SOCORRO        FAIR      57  18  21 NW9       30.25R

$$
NMZ524>526-539-540-220200-
SOUTHCENTRAL MOUNTAINS

CITY           SKY/WX    TMP DP  RH WIND       PRES   REMARKS
RUIDOSO        FAIR      46  16  29 SE8       30.39R

$$
NMZ527>531-220200-
NORTHEAST HIGHLANDS/NORTHEAST PLAINS

CITY           SKY/WX    TMP DP  RH WIND       PRES   REMARKS
LAS VEGAS      FAIR      41  27  57 SE9       30.37R
RATON          FAIR      38  30  73 NE5       30.34R WCI  34
CLAYTON        FAIR      33  24  69 NE8       30.34R WCI  26

$$
NMZ532>537-220200-
EASTCENTRAL PLAINS

CITY           SKY/WX    TMP DP  RH WIND       PRES   REMARKS
SANTA ROSA     FAIR      47  31  53 E10       30.32R
TUCUMCARI      FAIR      51  28  41 E14       30.31R
CANNON AFB     FAIR      49  27  43 NE13      30.33R
CLOVIS AIRPORT FAIR      47  27  45 NE14      30.33R

$$
NMZ028-029-538-220200-
SOUTHEAST PLAINS

CITY           SKY/WX    TMP DP  RH WIND       PRES   REMARKS
ROSWELL        FAIR      57  25  29 NE6       30.26R
ARTESIA        FAIR      59  23  25 NE6       30.25R
CARLSBAD       FAIR      54  26  34 CALM      30.22R
HOBBS          CLEAR     59  27  29 NE13      30.24R


$$




USA.gov is the U.S. government's official web portal to all federal, state and local government web resources and services.